SCP
0 0 0 0 0 0 0 0 0 0 0 0 0 0 0 0 0 0 0 0 0 0
0 0 0 0 0 0 0 0 0 0 0 0 0 0 0 0 0 0 0 0 0 0
0 0 0 0 0 0 0 0 0 0 0 0 0 0 0 0 0 0 0 0 0 0
0 0 0 0 0 0 0 0 0 0 0 0 0 0 0 0 0 0 0 0 0 0
-0 -0 -0 -0 -0 -0 0 0 0 0 0 -0 -0 0 0 0 0 0 0 0 0 0
-0 -0 -0 -0 -0 -0 -0 -0 0 0 0 0 0 -0 -0 -0 0 0 0 0 0 0
-0 -0 -0 -0 -0 -0 -0 -0 -0 -0 0 0 0 0 0 0 -0 0 0 0 0 0
0 0 0 -0 -0 -0 -0 -0 -0 -0 -0 0 0 0 0 0 0 0 0 0 0 0
0 0 0 0 0 0 -0 -0 -0 -0 -0 -0 0 -0 0 0 0 0 0 0 0 0
0 0 0 0 0 0 0 0 -0 -0 -0 -0 0 -0 0 0 0 0 0 0 0 0
0 0 0 0 0 0 0 0 0 0 0 0 0 -0 -0 0 0 0 0 0 0 0
0 0 0 0 0 0 0 0 0 0 0 0 0 0 0 0 0 0 0 0 0 0
0 0 0 0 0 0 0 0 0 0 0 0 0 0 0 0 0 0 0 0 0 0
0 0 0 0 0 0 0 0 0 0 0 0 0 0 0 0 0 0 0 0 0 0
Wind_Speed_500mb
26 27 24 24 24 26 23 22 26 32 39 42 41 41 48 60 69 76 85 91 97 103
26 27 32 33 32 29 29 31 30 27 32 37 44 47 45 51 59 69 78 85 89 98
24 26 29 34 37 38 41 40 38 37 36 35 34 41 49 54 55 62 71 78 86 89
40 40 35 31 32 36 40 47 49 49 48 44 43 42 43 49 57 63 67 70 78 86
48 48 48 46 44 42 38 40 49 55 58 57 55 49 47 49 52 60 69 73 76 81
53 55 59 60 61 62 63 61 56 55 56 61 63 62 56 53 51 56 65 72 77 82
65 68 71 75 76 79 79 78 77 74 70 65 64 66 66 63 62 58 60 65 73 80
67 72 77 82 83 85 87 89 91 93 92 89 84 76 72 73 73 73 71 68 70 74
77 79 81 83 84 88 92 95 98 99 101 102 101 101 95 89 89 86 84 84 78 77
78 83 85 87 90 93 97 102 108 112 116 118 116 113 113 113 109 106 103 98 93 86
78 82 87 94 102 110 114 120 124 125 124 125 129 129 126 123 116 117 117 112 106 100
78 85 92 99 105 111 114 122 128 131 133 135 140 134 133 118 106 112 126 125 116 111
93 95 98 101 107 111 111 114 112 119 128 133 140 143 132 105 94 99 115 121 120 117
102 102 102 104 105 107 109 110 114 117 124 120 120 131 110 96 90 95 99 100 102 105
Wind_Direction_500mb
20 28 26 25 21 9 345 322 297 291 298 299 292 279 269 265 264 263 262 259 256 256
10 8 3 4 4 4 354 346 342 319 293 288 292 291 281 272 266 264 265 264 260 256
21 19 8 359 353 352 349 345 341 335 332 324 299 287 287 283 276 269 265 265 265 262
6 4 5 358 348 342 340 337 339 340 338 332 324 316 296 286 285 277 271 266 265 265
358 355 355 350 346 342 338 327 330 331 332 333 332 325 314 305 291 282 278 274 269 267
339 337 334 333 332 330 329 332 331 325 320 320 322 324 325 318 307 296 283 276 272 270
329 327 325 324 324 323 322 322 321 319 317 315 312 311 313 314 314 309 298 289 278 272
321 319 317 316 316 315 315 315 315 314 312 311 309 306 304 303 305 306 305 300 292 284
318 316 313 311 310 309 309 309 308 306 306 305 305 305 303 301 300 298 298 298 297 294
312 310 309 308 306 305 303 301 300 300 300 298 297 296 297 297 296 294 293 292 292 293
310 307 306 304 303 302 301 299 297 295 292 290 289 290 290 290 290 289 288 287 288 288
306 302 300 298 297 296 295 294 293 293 292 291 289 286 285 287 284 282 282 283 283 283
304 299 297 295 294 292 288 286 286 286 285 286 286 286 285 285 282 279 278 278 277 277
308 307 304 301 300 298 296 294 291 290 289 286 285 287 286 285 281 276 273 270 267 268
Wind_Speed_850mb
26 27 24 24 24 26 23 22 26 32 39 42 41 41 48 60 69 76 85 91 97 103
26 27 32 33 32 29 29 31 30 27 32 37 44 47 45 51 59 69 78 85 89 98
24 26 29 34 37 38 41 40 38 37 36 35 34 41 49 54 55 62 71 78 86 89
40 40 35 31 32 36 40 47 49 49 48 44 43 42 43 49 57 63 67 70 78 86
48 48 48 46 44 42 38 40 49 55 58 57 55 49 47 49 52 60 69 73 76 81
53 55 59 60 61 62 63 61 56 55 56 61 63 62 56 53 51 56 65 72 77 82
65 68 71 75 76 79 79 78 77 74 70 65 64 66 66 63 62 58 60 65 73 80
67 72 77 82 83 85 87 89 91 93 92 89 84 76 72 73 73 73 71 68 70 74
77 79 81 83 84 88 92 95 98 99 101 102 101 101 95 89 89 86 84 84 78 77
78 83 85 87 90 93 97 102 108 112 116 118 116 113 113 113 109 106 103 98 93 86
78 82 87 94 102 110 114 120 124 125 124 125 129 129 126 123 116 117 117 112 106 100
78 85 92 99 105 111 114 122 128 131 133 135 140 134 133 118 106 112 126 125 116 111
93 95 98 101 107 111 111 114 112 119 128 133 140 143 132 105 94 99 115 121 120 117
102 102 102 104 105 107 109 110 114 117 124 120 120 131 110 96 90 95 99 100 102 105
Wind_Direction_850mb
20 28 26 25 21 9 345 322 297 291 298 299 292 279 269 265 264 263 262 259 256 256
10 8 3 4 4 4 354 346 342 319 293 288 292 291 281 272 266 264 265 264 260 256
21 19 8 359 353 352 349 345 341 335 332 324 299 287 287 283 276 269 265 265 265 262
6 4 5 358 348 342 340 337 339 340 338 332 324 316 296 286 285 277 271 266 265 265
358 355 355 350 346 342 338 327 330 331 332 333 332 325 314 305 291 282 278 274 269 267
339 337 334 333 332 330 329 332 331 325 320 320 322 324 325 318 307 296 283 276 272 270
329 327 325 324 324 323 322 322 321 319 317 315 312 311 313 314 314 309 298 289 278 272
321 319 317 316 316 315 315 315 315 314 312 311 309 306 304 303 305 306 305 300 292 284
318 316 313 311 310 309 309 309 308 306 306 305 305 305 303 301 300 298 298 298 297 294
312 310 309 308 306 305 303 301 300 300 300 298 297 296 297 297 296 294 293 292 292 293
310 307 306 304 303 302 301 299 297 295 292 290 289 290 290 290 290 289 288 287 288 288
306 302 300 298 297 296 295 294 293 293 292 291 289 286 285 287 284 282 282 283 283 283
304 299 297 295 294 292 288 286 286 286 285 286 286 286 285 285 282 279 278 278 277 277
308 307 304 301 300 298 296 294 291 290 289 286 285 287 286 285 281 276 273 270 267 268